Weather in Laguna Beach

United States     33°32′14″N   117°46′11″W
В апреле 2022 года жителям России запретили посещать сайт meteo.paraplan.net по решению Генеральной прокуратуры. Аудитория сайта уменьшилась в 10 раз. Владельцы сайта не видят смысла в поддержке погодного сервера в таких условиях. Сайт будет закрыт в октябре.
temp.,
°C
wind,
m/s
gust,
m/s
humid.,
%
clouds,
%
prec.,
mm/h
press.,
hPa
HPBL,
m
4 october, tue
tue423:00+20wsw21877 0.0 1014197
02:00+19s218921 0.0 1013206
05:00+19s11874 0.0 1013180
08:00+20ssw21840 0.0 1014189
11:00+21wsw22780 0.0 1014211
14:00+21sw327712 0.0 1013264
17:00+21s22779 0.0 1012233
20:00+21sse33820 0.0 1013243
5 october, wed
wed523:00+20sse33830 0.0 1014202
02:00+20sse22830 0.0 1013158
05:00+20s11820 0.0 101386
08:00+21ssw11780 0.0 101480
11:00+22sw32740 0.0 1014197
14:00+22wsw33734 0.0 1013256
17:00+22ssw32756 0.0 1012220
20:00+21sse23810 0.0 1014162
6 october, thu
thu623:00+21sse22800 0.0 1014119
02:00+21sse22820 0.0 1014114
05:00+21wnw11800 0.0 101443
08:00+21ssw11770 0.0 101559
11:00+22sw32720 0.0 1016192
14:00+22sw32700 0.0 1014243
17:00+22ssw22716 0.0 1014205
20:00+21s11764 0.0 101569
7 october, fri
fri723:00+21se33783 0.0 1016113
02:00+21sse22800 0.0 101583
05:00+21sw01790 0.0 101423
08:00+22w11740 0.0 101527
11:00+23ssw22690 0.0 1015149
14:00+23w33670 0.0 1013205
17:00+23wsw22694 0.0 1013138
20:00+22sse11762 0.0 101455
8 october, sat
sat823:00+22sse33770 0.0 101578
02:00+21sse44785 0.0 1014133
05:00+21sse22781 0.0 101479
08:00+22se22754 0.0 101563
11:00+23ssw21664 0.0 1015143
14:00+23ssw33695 0.0 1013239
17:00+22s337663 0.1 1013222
20:00+21sse45833 0.2 1015277